Location: Bow
(51.5261°N, 0.0167°W)
Time: 15:32:41
(UTC+00:00)

Cosmos 1455 Rocket - Pass Details

Date: 18 September 2020
Orbit: 604 x 630 km, 82.5° (Epoch: 27 October)

Event Time Altitude Azimuth Distance (km) Brightness Sun altitude
Exits shadow 21:22:58 32° 14° (NNE) 1,078 4.5 -28.2°
Drops below altitude 10° 21:25:21 10° 12° (NNE) 1,993 6.0 -28.4°
Sets 21:27:35 0° 12° (NNE) 2,899 7.0 -28.7°
